FW1907 Weather Reports


time (UTC)temp
C
wind
direction
speed
KPH
gust
KPH
rain 1hr
cm
rain 24hr
cm
rain mn
cm
humidity
%
barometer
mb
20260504151004 9 86 0.0 0.0 0.00 0.00 0.00 50 1014.9
20260504150504 9 130 0.0 0.0 0.00 0.00 0.00 50 1015.1
20260504141004 8 94 0.0 0.0 0.00 0.00 0.00 53 1015.1
20260504140503 8 93 0.0 0.0 0.00 0.00 0.00 53 1014.9
20260504130500 7 125 0.0 0.0 0.00 0.00 0.00 55 1014.5
20260504110458 6 137 0.0 0.0 0.00 0.00 0.00 65 1013.3
20260504110345 6 93 0.0 0.0 0.00 0.00 0.00 66 1012.9
20260504100456 8 147 0.0 0.0 0.00 0.00 0.00 53 1011.0
20260504081953 8 149 0.0 0.0 0.00 0.00 0.00 55 1010.9
20260504081455 8 151 0.0 0.0 0.00 0.00 0.00 55 1010.9
20260504080953 8 151 0.0 0.0 0.00 0.00 0.00 55 1010.9
20260504080456 8 151 0.0 0.0 0.00 0.00 0.00 55 1010.9
20260504050448 10 207 0.0 0.0 0.00 0.00 0.00 52 1011.1
20260504045949 10 147 0.0 0.0 0.00 0.00 0.00 52 1011.1
20260504045447 11 147 0.0 0.0 0.00 0.00 0.00 51 1011.0
20260504044947 11 147 0.0 0.0 0.00 0.00 0.00 51 1011.0
20260504044448 11 147 0.0 0.0 0.00 0.00 0.00 52 1010.9
20260504043948 11 147 0.0 0.0 0.00 0.00 0.00 52 1010.9
20260504043446 10 147 0.0 0.0 0.00 0.00 0.00 52 1010.9
20260504042947 10 147 0.0 0.0 0.00 0.00 0.00 52 1010.8
20260504042447 10 148 0.0 0.0 0.00 0.00 0.00 53 1010.8
20260504042325 10 147 0.0 0.0 0.00 0.00 0.00 53 1010.8
20260504041448 10 149 0.0 0.0 0.00 0.00 0.00 54 1010.7
20260504041329 10 155 0.0 0.0 0.00 0.00 0.00 54 1010.7
20260504040448 10 166 0.0 0.0 0.00 0.00 0.00 53 1010.6
20260504035945 11 200 0.0 0.0 0.00 0.00 0.00 52 1010.4
20260504035448 11 178 0.0 0.0 0.00 0.00 0.00 51 1010.4
20260504034946 12 185 0.0 0.0 0.00 0.00 0.00 49 1010.3
20260504034447 13 180 0.0 0.0 0.00 0.00 0.00 45 1010.3
20260504033947 14 180 0.0 0.0 0.00 0.00 0.00 40 1010.2
20260504033447 16 262 0.0 0.0 0.00 0.00 0.00 35 1010.1
20260504032948 16 355 0.0 0.0 0.00 0.00 0.00 35 1010.0
20260504032446 16 355 0.0 0.0 0.00 0.00 0.00 35 1010.0
20260504032328 16 355 0.0 0.0 0.00 0.00 0.00 34 1009.9
20260504031445 16 355 0.0 0.0 0.00 0.00 0.00 34 1009.7
20260504030945 16 355 0.0 0.0 0.00 0.00 0.00 34 1009.7
20260504030445 17 355 0.0 0.0 0.00 0.00 0.00 34 1009.7
20260504025945 17 355 0.0 0.0 0.00 0.00 0.00 33 1009.7
20260504025447 17 344 0.0 0.0 0.00 0.00 0.00 33 1009.6
20260504024947 17 343 0.0 0.0 0.00 0.00 0.00 32 1009.6
20260504024446 17 344 0.0 0.0 0.00 0.00 0.00 32 1009.6
20260504023945 18 340 0.0 0.0 0.00 0.00 0.00 31 1009.6
20260504023446 18 353 0.0 0.0 0.00 0.00 0.00 30 1009.6
20260504022944 19 350 0.0 0.0 0.00 0.00 0.00 29 1009.6
20260504022443 19 0 0.0 0.0 0.00 0.00 0.00 28 1009.6
20260504022325 20 348 0.0 0.0 0.00 0.00 0.00 28 1009.5
20260504021827 20 336 0.0 0.0 0.00 0.00 0.00 26 1009.4
20260504020945 20 351 0.0 0.0 0.00 0.00 0.00 27 1009.5
20260504020443 21 0 0.0 0.0 0.00 0.00 0.00 26 1009.5
20260504015944 21 0 0.0 0.0 0.00 0.00 0.00 26 1009.4
20260504015445 20 0 0.0 0.0 0.00 0.00 0.00 26 1009.4
20260504014945 20 0 0.0 0.0 0.00 0.00 0.00 25 1009.4
20260504014444 20 0 0.0 0.0 0.00 0.00 0.00 25 1009.5
20260504014324 21 355 0.0 0.0 0.00 0.00 0.00 25 1009.6
20260504013822 21 313 0.0 0.0 0.00 0.00 0.00 23 1009.6
20260504012942 21 292 0.0 0.0 0.00 0.00 0.00 22 1009.6
20260504012445 21 247 0.0 0.0 0.00 0.00 0.00 22 1009.5
20260504011942 21 258 0.0 0.0 0.00 0.00 0.00 22 1009.6
20260504011444 21 286 0.0 0.0 0.00 0.00 0.00 22 1009.6
20260504010943 21 298 0.0 0.0 0.00 0.00 0.00 22 1009.6
20260504010442 21 258 0.0 0.0 0.00 0.00 0.00 22 1009.7
20260504005942 21 193 0.0 0.0 0.00 0.00 0.00 21 1009.9
20260504005814 21 237 0.0 0.0 0.00 0.00 0.00 22 1010.0
20260504004941 21 269 0.0 0.0 0.00 0.00 0.00 22 1009.9
20260504004815 21 283 0.0 0.0 0.00 0.00 0.00 22 1010.0
20260504003942 22 321 0.0 0.0 0.00 0.00 0.00 23 1010.0
20260504003442 22 217 0.0 0.0 0.00 0.00 0.00 23 1010.1
20260504003315 21 278 0.0 0.0 0.00 0.00 0.00 24 1010.1
20260504002441 21 279 0.0 0.0 0.00 0.00 0.00 24 1010.2
20260504001941 21 265 0.0 0.0 0.00 0.00 0.00 23 1010.3
20260504001441 21 161 0.0 0.0 0.00 0.00 0.00 24 1010.2
20260504000940 21 216 0.0 0.0 0.00 0.00 0.00 23 1010.3
20260504000441 21 188 0.0 0.0 0.00 0.00 0.00 23 1010.4
20260503235942 21 272 0.0 0.0 0.00 0.00 0.00 23 1010.4
20260503235441 21 250 0.0 0.0 0.00 0.00 0.00 24 1010.4
20260503234941 21 269 0.0 0.0 0.00 0.00 0.00 23 1010.6
20260503234441 21 237 0.0 0.0 0.00 0.00 0.00 23 1010.6
20260503233939 21 299 0.0 0.0 0.00 0.00 0.00 24 1010.7
20260503233440 21 276 0.0 0.0 0.00 0.00 0.00 24 1010.8
20260503232941 21 326 0.0 0.0 0.00 0.00 0.00 24 1010.8
20260503232439 21 327 0.0 0.0 0.00 0.00 0.00 25 1010.8
20260503232319 21 324 0.0 0.0 0.00 0.00 0.00 24 1010.9
20260503231440 21 300 0.0 0.0 0.00 0.00 0.00 25 1010.9
20260503230941 21 283 0.0 0.0 0.00 0.00 0.00 25 1011.0
20260503230440 21 271 0.0 0.0 0.00 0.00 0.00 26 1011.0
20260503230309 21 274 0.0 0.0 0.00 0.00 0.00 26 1011.1
20260503225431 21 221 0.0 0.0 0.00 0.00 0.00 26 1011.2
20260503224931 21 188 0.0 0.0 0.00 0.00 0.00 25 1011.2
20260503224432 21 283 0.0 0.0 0.00 0.00 0.00 25 1011.2
20260503223931 21 241 0.0 0.0 0.00 0.00 0.00 25 1011.2
20260503223703 21 148 0.0 0.0 0.00 0.00 0.00 25 1011.5
20260503223556 21 337 0.0 0.0 0.00 0.00 0.00 25 1011.4
20260503222431 20 257 0.0 0.0 0.00 0.00 0.00 29 1011.6
20260503221931 20 255 0.0 0.0 0.00 0.00 0.00 28 1011.6
20260503221431 20 250 0.0 0.0 0.00 0.00 0.00 26 1011.8
20260503220930 20 231 0.0 0.0 0.00 0.00 0.00 27 1011.9
20260503220816 20 314 0.0 0.0 0.00 0.00 0.00 28 1012.1
20260503215932 20 252 0.0 0.0 0.00 0.00 0.00 27 1012.2
20260503215431 20 320 0.0 0.0 0.00 0.00 0.00 27 1012.2
20260503214933 21 248 0.0 0.0 0.00 0.00 0.00 27 1012.3
20260503214432 21 348 0.0 0.0 0.00 0.00 0.00 27 1012.3
20260503213933 20 252 0.0 0.0 0.00 0.00 0.00 28 1012.4
20260503213433 20 200 0.0 0.0 0.00 0.00 0.00 27 1012.6
20260503212931 21 323 0.0 0.0 0.00 0.00 0.00 28 1012.6
20260503212802 21 281 0.0 0.0 0.00 0.00 0.00 29 1012.6
20260503212313 20 20 0.0 0.0 0.00 0.00 0.00 30 1012.9
20260503211432 20 312 0.0 0.0 0.00 0.00 0.00 29 1012.9
20260503210932 20 279 0.0 0.0 0.00 0.00 0.00 30 1013.0
20260503210431 20 247 0.0 0.0 0.00 0.00 0.00 28 1013.1
20260503205931 20 25 0.0 0.0 0.00 0.00 0.00 29 1013.2
20260503205431 19 271 0.0 0.0 0.00 0.00 0.00 31 1013.2
20260503204932 19 285 0.0 0.0 0.00 0.00 0.00 31 1013.4
20260503204432 20 264 0.0 0.0 0.00 0.00 0.00 32 1013.4
20260503203931 19 0 0.0 0.0 0.00 0.00 0.00 30 1013.4
20260503203818 19 248 0.0 0.0 0.00 0.00 0.00 32 1013.6
20260503203052 19 251 0.0 0.0 0.00 0.00 0.00 31 1013.8
20260503203011 19 192 0.0 0.0 0.00 0.00 0.00 31 1013.6
20260503202553 19 255 0.0 0.0 0.00 0.00 0.00 30 1013.7
20260503201431 18 286 0.0 0.0 0.00 0.00 0.00 33 1013.8
20260503201321 18 281 0.0 0.0 0.00 0.00 0.00 35 1013.8
20260503200433 18 221 0.0 0.0 0.00 0.00 0.00 35 1014.0
20260503195933 18 282 0.0 0.0 0.00 0.00 0.00 32 1014.1
20260503195428 18 331 0.0 0.0 0.00 0.00 0.00 32 1014.1
20260503194929 18 326 0.0 0.0 0.00 0.00 0.00 33 1014.1
20260503194428 18 21 0.0 0.0 0.00 0.00 0.00 31 1014.2
20260503193926 18 347 0.0 0.0 0.00 0.00 0.00 35 1014.2
20260503193424 18 257 0.0 0.0 0.00 0.00 0.00 33 1014.4
20260503193314 18 268 0.0 0.0 0.00 0.00 0.00 35 1014.5
20260503192425 18 258 0.0 0.0 0.00 0.00 0.00 35 1014.7
20260503191918 18 11 0.0 0.0 0.00 0.00 0.00 33 1014.7
20260503191419 18 326 0.0 0.0 0.00 0.00 0.00 35 1014.8
20260503190917 17 262 0.0 0.0 0.00 0.00 0.00 35 1014.9
20260503190417 18 329 0.0 0.0 0.00 0.00 0.00 34 1014.9
20260503185917 18 334 0.0 0.0 0.00 0.00 0.00 35 1015.1
20260503185418 18 0 0.0 0.0 0.00 0.00 0.00 35 1015.1
20260503184917 17 231 0.0 0.0 0.00 0.00 0.00 36 1015.1
20260503184415 17 14 0.0 0.0 0.00 0.00 0.00 35 1015.1
20260503184254 17 319 0.0 0.0 0.00 0.00 0.00 38 1015.2
20260503183549 17 16 0.0 0.0 0.00 0.00 0.00 36 1015.4
20260503183543 17 0 0.0 0.0 0.00 0.00 0.00 37 1015.4
20260503183453 17 353 0.0 0.0 0.00 0.00 0.00 37 1015.3
20260503181905 16 331 0.0 0.0 0.00 0.00 0.00 39 1015.5
20260503181404 17 279 0.0 0.0 0.00 0.00 0.00 38 1015.4
20260503180905 17 336 0.0 0.0 0.00 0.00 0.00 38 1015.6
20260503180403 16 348 0.0 0.0 0.00 0.00 0.00 42 1015.6
20260503175904 16 312 0.0 0.0 0.00 0.00 0.00 41 1015.5
20260503175405 16 20 0.0 0.0 0.00 0.00 0.00 40 1015.6
20260503174904 16 295 0.0 0.0 0.00 0.00 0.00 42 1015.7
20260503174405 16 0 0.0 0.0 0.00 0.00 0.00 44 1015.9
20260503173903 16 25 0.0 0.0 0.00 0.00 0.00 44 1015.9
20260503173405 16 24 0.0 0.0 0.00 0.00 0.00 43 1015.9
20260503172903 15 0 0.0 0.0 0.00 0.00 0.00 45 1016.0
20260503172404 15 338 0.0 0.0 0.00 0.00 0.00 43 1016.0
20260503171903 15 333 0.0 0.0 0.00 0.00 0.00 45 1016.1
20260503171404 15 321 0.0 0.0 0.00 0.00 0.00 45 1016.2
20260503170905 15 31 0.0 0.0 0.00 0.00 0.00 47 1016.2
20260503170548 15 31 0.0 0.0 0.00 0.00 0.00 48 1016.2
20260503170503 15 295 0.0 0.0 0.00 0.00 0.00 46 1016.2